Weather History for KFFL - October, 2011

Change the Weather History Date:

Sunday, October 23, 2011

  Actual Average Record
Temperature  
Mean Temperature 58 °F -  
Max Temperature 73 °F 61 °F 80 °F (1992)
Min Temperature 42 °F 43 °F 23 °F (1981)
Degree Days  
Heating Degree Days 8    
Growing Degree Days 8 (Base 50)    
Moisture  
Dew Point 39 °F    
Average Humidity 55    
Maximum Humidity 76    
Minimum Humidity 25    
Precipitation  
Precipitation 0.02 in - - ()
Sea Level Pressure  
Sea Level Pressure 29.95 in    
Wind  
Wind Speed 5 mph (SW)    
Max Wind Speed 17 mph    
Max Gust Speed 28 mph    
Visibility 10 miles    
Events Rain    
Averages and records for this station are not official NWS values.
T = Trace of Precipitation, MM = Missing Value Source: NWS Daily Summary

Daily Weather History Graph

Daily Weather History Graph

Search for Another Location

Airport or City:

Trip Planner

Search our weather history database for the weather conditions in past years. The results will help you decide how hot, cold, wet, or windy it might be!

Date:

Astronomy

Oct. 23, 2011 Rise Set
Actual Time 7:28 AM CDT 6:15 PM CDT
Civil Twilight 7:00 AM CDT 6:43 PM CDT
Nautical Twilight 6:27 AM CDT 7:15 PM CDT
Astronomical Twilight 5:56 AM CDT 7:47 PM CDT
Moon 3:33 AM CDT (10/23) 4:08 PM CDT (10/23)
Length of Visible Light 11h 43m
Length of Day
10h 47m
Waning Crescent, 14% of the Moon is Illuminated
Oct 23
Waning Crescent
Oct 26
New
Nov 2
First Quarter
Nov 10
Full
Nov 18
Last Quarter

Hourly Weather History & Observations

Time (CDT) Temp. Windchill Dew Point Humidity Pressure Visibility Wind Dir Wind Speed Gust Speed Precip Events Conditions
12:15 AM 46.4 °F 44.3 °F 35.6 °F 66% 30.00 in 7.0 mi NNE 4.6 mph - N/A   Clear
12:35 AM 48.2 °F - 35.6 °F 62% 30.00 in 10.0 mi NNE 3.5 mph - N/A   Clear
12:55 AM 46.4 °F - 35.6 °F 66% 30.01 in 10.0 mi Calm Calm - N/A   Clear
1:35 AM 46.4 °F - 35.6 °F 66% 30.01 in 10.0 mi Calm Calm - N/A   Mostly Cloudy
1:55 AM 46.4 °F 45.2 °F 35.6 °F 66% 30.01 in 10.0 mi SSW 3.5 mph - N/A   Overcast
2:15 AM 46.4 °F 44.3 °F 37.4 °F 71% 30.02 in 10.0 mi SSW 4.6 mph - N/A   Overcast
2:35 AM 48.2 °F - 37.4 °F 66% 30.02 in 10.0 mi SW 3.5 mph - N/A   Overcast
2:55 AM 48.2 °F - 39.2 °F 71% 30.02 in 10.0 mi SW 4.6 mph - N/A   Overcast
3:15 AM 48.2 °F - 39.2 °F 71% 30.02 in 10.0 mi WSW 6.9 mph - N/A   Overcast
3:35 AM 48.2 °F - 39.2 °F 71% 30.02 in 10.0 mi Calm Calm - N/A   Mostly Cloudy
3:55 AM 46.4 °F 45.2 °F 39.2 °F 76% 30.01 in 10.0 mi SW 3.5 mph - N/A   Scattered Clouds
4:15 AM 48.2 °F - 37.4 °F 66% 30.01 in 10.0 mi WSW 3.5 mph - N/A   Clear
4:35 AM 44.6 °F 43.1 °F 37.4 °F 76% 30.01 in 10.0 mi West 3.5 mph - N/A   Clear
4:55 AM 48.2 °F - 39.2 °F 71% 30.00 in 10.0 mi Calm Calm - N/A   Mostly Cloudy
5:15 AM 48.2 °F - 39.2 °F 71% 29.99 in 10.0 mi SSW 3.5 mph - N/A   Overcast
5:35 AM 46.4 °F - 39.2 °F 76% 29.99 in 10.0 mi Calm Calm - N/A   Overcast
5:55 AM 46.4 °F - 39.2 °F 76% 29.99 in 10.0 mi Calm Calm - N/A   Scattered Clouds
6:15 AM 46.4 °F - 39.2 °F 76% 29.99 in 10.0 mi Calm Calm - N/A   Scattered Clouds
6:35 AM 44.6 °F - 37.4 °F 76% 29.99 in 10.0 mi Calm Calm - N/A   Scattered Clouds
6:55 AM 46.4 °F - 39.2 °F 76% 29.99 in 10.0 mi Calm Calm - N/A   Scattered Clouds
7:15 AM 42.8 °F - 35.6 °F 76% 29.99 in 10.0 mi Calm Calm - N/A   Mostly Cloudy
7:35 AM 44.6 °F - 37.4 °F 76% 29.99 in 10.0 mi Calm Calm - N/A   Overcast
7:55 AM 44.6 °F - 37.4 °F 76% 29.98 in 10.0 mi Calm Calm - N/A   Scattered Clouds
8:15 AM 44.6 °F - 37.4 °F 76% 29.99 in 10.0 mi Calm Calm - N/A   Clear
8:35 AM 48.2 °F - 41.0 °F 76% 29.99 in 10.0 mi Calm Calm - N/A   Clear
9:15 AM 53.6 °F - 42.8 °F 67% 29.98 in 10.0 mi Calm Calm - N/A   Clear
9:55 AM 57.2 °F - 44.6 °F 63% 29.99 in 10.0 mi South 5.8 mph - N/A   Clear
10:15 AM 59.0 °F - 44.6 °F 59% 29.99 in 10.0 mi SSW 8.1 mph - N/A   Clear
10:35 AM 60.8 °F - 44.6 °F 55% 29.99 in 10.0 mi SSW 6.9 mph - N/A   Clear
10:55 AM 62.6 °F - 46.4 °F 55% 29.98 in 10.0 mi South 6.9 mph - N/A   Clear
11:35 AM 66.2 °F - 44.6 °F 46% 29.98 in 10.0 mi SSW 6.9 mph - N/A   Clear
11:55 AM 68.0 °F - 44.6 °F 43% 29.98 in 10.0 mi SW 8.1 mph - N/A   Clear
12:15 PM 69.8 °F - 42.8 °F 38% 29.97 in 10.0 mi South 10.4 mph - N/A   Clear
12:35 PM 71.6 °F - 41.0 °F 33% 29.96 in 10.0 mi SSW 16.1 mph 21.9 mph N/A   Clear
12:55 PM 71.6 °F - 39.2 °F 31% 29.95 in 10.0 mi SW 15.0 mph - N/A   Clear
1:15 PM 71.6 °F - 37.4 °F 29% 29.94 in 10.0 mi SSW 15.0 mph 23.0 mph N/A   Clear
1:35 PM 73.4 °F - 37.4 °F 27% 29.93 in 10.0 mi WSW 16.1 mph 20.7 mph N/A   Clear
1:55 PM 73.4 °F - 35.6 °F 25% 29.92 in 10.0 mi SW 13.8 mph 26.5 mph N/A   Clear
2:15 PM 73.4 °F - 37.4 °F 27% 29.91 in 10.0 mi SW 13.8 mph 21.9 mph N/A   Clear
2:35 PM 71.6 °F - 37.4 °F 29% 29.91 in 10.0 mi SW 11.5 mph 23.0 mph N/A   Clear
2:55 PM 73.4 °F - 37.4 °F 27% 29.89 in 10.0 mi SW 17.3 mph 23.0 mph N/A   Clear
3:15 PM 73.4 °F - 35.6 °F 25% 29.89 in 10.0 mi WSW 13.8 mph - N/A   Clear
3:35 PM 73.4 °F - 35.6 °F 25% 29.89 in 10.0 mi WSW 13.8 mph 21.9 mph N/A   Clear
3:55 PM 73.4 °F - 35.6 °F 25% 29.88 in 10.0 mi SW 11.5 mph - N/A   Clear
4:15 PM 71.6 °F - 37.4 °F 29% 29.89 in 10.0 mi WSW 10.4 mph 19.6 mph N/A   Clear
4:35 PM 73.4 °F - 35.6 °F 25% 29.88 in 10.0 mi SW 12.7 mph - N/A   Clear
4:55 PM 71.6 °F - 35.6 °F 27% 29.87 in 10.0 mi SW 11.5 mph - N/A   Clear
5:15 PM 71.6 °F - 35.6 °F 27% 29.87 in 10.0 mi SW 9.2 mph - N/A   Clear
5:35 PM 69.8 °F - 37.4 °F 31% 29.87 in 10.0 mi SW 10.4 mph - N/A   Scattered Clouds
5:55 PM 69.8 °F - 37.4 °F 31% 29.87 in 10.0 mi SSW 8.1 mph - N/A   Clear
7:15 PM 60.8 °F - 39.2 °F 45% 29.88 in 10.0 mi SSW 6.9 mph - N/A   Scattered Clouds
7:35 PM 59.0 °F - 39.2 °F 48% 29.88 in 10.0 mi SSW 8.1 mph - N/A   Scattered Clouds
7:55 PM 59.0 °F - 41.0 °F 51% 29.88 in 10.0 mi SSW 6.9 mph - N/A   Mostly Cloudy
8:15 PM 59.0 °F - 41.0 °F 51% 29.87 in 10.0 mi SSW 6.9 mph - N/A   Mostly Cloudy
8:35 PM 57.2 °F - 41.0 °F 55% 29.88 in 10.0 mi SSW 8.1 mph - N/A   Scattered Clouds
8:55 PM 59.0 °F - 41.0 °F 51% 29.88 in 10.0 mi SSW 8.1 mph - N/A   Clear
9:15 PM 57.2 °F - 41.0 °F 55% 29.88 in 10.0 mi SSW 8.1 mph - N/A   Clear
9:35 PM 57.2 °F - 41.0 °F 55% 29.88 in 10.0 mi SSW 8.1 mph - N/A   Clear
9:55 PM 57.2 °F - 41.0 °F 55% 29.88 in 10.0 mi SW 8.1 mph - N/A   Scattered Clouds
10:35 PM 59.0 °F - 48.2 °F 67% 29.91 in 7.0 mi West 11.5 mph 27.6 mph 0.02 in Rain Light Rain
10:55 PM 57.2 °F - 46.4 °F 67% 29.94 in 10.0 mi WNW 10.4 mph - 0.02 in   Scattered Clouds
11:15 PM 55.4 °F - 46.4 °F 72% 29.95 in 10.0 mi NNW 8.1 mph - N/A   Clear
11:35 PM 53.6 °F - 44.6 °F 72% 29.95 in 10.0 mi NW 6.9 mph - N/A   Clear
11:55 PM 51.8 °F - 44.6 °F 76% 29.97 in 10.0 mi NW 8.1 mph - N/A   Clear